GFSMA_850_spd_021.txt.gz
Wind_Speed
16 14 12 12 21 18 17 19 21 10 11 10 12 12 13 13 16 16 12 15 15 14 14 13 14 12 14 13 12 14 14 13 13 12 12 11 10 10 10 10 10 10 9
18 20 20 24 27 20 14 24 14 10 10 9 10 12 14 15 15 10 14 12 17 16 16 18 16 19 18 15 13 15 16 15 14 14 13 12 12 11 11 12 13 12 12
17 17 19 20 15 22 21 24 12 10 8 12 12 10 11 14 16 15 16 14 18 19 18 20 21 22 20 20 20 18 17 17 17 16 16 14 15 15 15 14 14 14 14
15 17 13 14 17 16 18 25 15 13 13 12 12 14 15 11 15 18 18 15 16 21 19 20 25 24 24 19 18 22 20 20 20 19 18 17 17 17 17 17 17 16 16
16 17 15 19 16 18 19 17 16 17 15 13 14 14 15 15 15 16 18 18 19 21 21 25 21 21 26 23 19 19 23 23 21 20 19 19 19 18 19 20 19 18 19
17 20 21 19 21 19 17 18 18 19 15 15 16 17 16 16 14 16 19 19 20 22 23 22 19 24 27 26 20 19 18 23 24 21 19 20 21 21 21 22 23 22 22
17 20 19 19 21 24 21 20 19 22 20 16 16 14 17 19 19 18 17 16 19 20 21 25 21 21 23 21 21 22 22 20 22 23 25 27 26 27 27 25 25 25 26
16 19 21 23 23 24 25 27 24 25 25 23 18 15 18 18 20 20 18 17 18 17 18 22 24 24 21 22 21 20 19 23 22 24 27 28 30 29 25 27 27 28 27
15 15 17 20 21 24 25 26 27 26 23 19 17 15 11 14 12 11 14 15 15 17 16 15 19 17 16 16 20 20 19 18 19 23 27 31 31 30 29 27 28 29 29
15 12 15 17 19 19 24 25 23 22 23 20 18 16 17 12 5 7 8 13 13 14 13 13 14 14 11 13 14 14 16 15 16 20 22 27 30 32 31 30 31 31 30
10 17 14 14 16 18 17 21 22 22 19 21 23 16 16 15 15 8 8 8 5 8 10 9 7 10 12 15 12 14 14 15 19 21 23 25 26 28 29 29 32 33 35
16 14 13 12 13 16 16 14 17 19 19 17 22 19 18 14 15 14 15 8 6 5 6 16 11 9 14 15 14 11 18 22 25 28 26 24 26 26 28 28 29 30 32
14 13 12 12 13 10 10 12 13 14 15 15 18 20 17 15 16 12 14 12 10 8 9 9 5 6 6 6 10 11 16 22 23 21 20 20 21 22 24 25 25 27 29
14 15 9 10 9 8 5 6 7 10 11 14 15 17 18 17 13 13 12 12 14 12 11 14 10 5 9 13 17 17 21 22 20 18 18 19 19 20 20 21 22 24 25
11 12 9 8 7 6 3 4 5 6 8 9 12 13 16 16 14 14 13 15 12 11 12 13 12 16 14 13 17 17 19 19 20 18 18 18 18 17 17 17 19 20 22
11 13 12 7 4 5 2 4 5 6 6 5 6 9 11 12 13 14 11 13 16 13 13 16 13 16 15 18 18 18 20 20 19 19 19 19 15 15 15 15 14 14 16
12 12 13 12 8 6 7 5 2 2 2 3 3 5 7 9 11 9 11 13 14 14 16 17 13 10 11 16 20 21 20 18 15 15 13 13 13 12 10 10 9 11 13
10 11 12 12 11 9 6 6 6 6 5 4 3 1 3 4 8 10 13 13 12 11 11 10 10 12 10 7 10 7 3 3 4 6 8 6 6 8 6 8 8 10 13
10 12 12 12 11 11 11 10 9 7 6 5 3 2 1 3 6 9 9 10 10 11 11 8 6 6 7 10 8 0 3 6 6 6 5 7 4 5 8 9 11 12 12
7 8 10 12 12 11 10 11 10 9 7 4 4 4 4 3 4 3 1 1 3 4 3 1 5 4 4 7 2 3 4 4 5 4 4 4 4 7 5 3 4 4 3
6 7 7 10 10 8 9 9 9 10 10 10 9 8 6 5 5 5 3 3 5 6 7 7 5 5 6 4 2 2 3 4 4 4 5 5 6 6 5 4 6 9 8
5 5 6 5 6 7 7 7 8 8 7 8 8 8 8 7 7 7 5 4 3 4 3 2 2 1 2 2 2 2 2 1 1 1 1 0 0 1 2 3 3 7 5
3 3 4 5 5 5 5 6 7 8 7 7 8 9 9 11 12 11 9 7 6 5 3 2 2 2 1 1 2 1 1 1 0 2 1 2 3 5 4 6 8 8 8
4 1 1 2 3 3 5 7 9 8 9 11 11 9 9 10 12 10 8 8 8 7 8 8 7 6 6 7 7 6 5 3 3 1 2 3 4 5 6 6 8 8 8
5 3 2 1 1 1 3 7 10 6 7 7 6 9 7 8 8 10 6 6 6 7 8 7 7 7 6 6 5 4 3 0 2 5 6 5 7 4 7 6 7 6 6
8 6 5 7 4 2 2 5 9 2 5 5 5 4 4 5 5 7 6 5 7 7 6 8 8 8 6 5 5 6 4 2 2 2 2 0 6 5 4 3 7 10 8

GFSMA_850_spd_024.txt.gz
Wind_Speed
13 15 18 16 10 13 14 16 16 12 16 15 13 15 13 15 14 16 11 8 9 8 11 11 12 13 12 10 8 8 9 10 10 10 10 9 10 9 8 9 9 9 9
18 19 16 19 20 20 21 20 18 18 18 14 16 15 16 15 15 18 19 14 12 12 12 13 14 15 15 14 12 10 11 11 12 12 11 11 11 11 11 10 10 11 11
18 20 17 18 20 15 18 12 15 6 28 31 22 15 11 13 14 13 15 16 16 14 15 13 14 17 19 19 14 17 15 15 13 14 13 13 13 13 14 13 13 12 13
19 19 18 12 16 12 13 14 22 23 23 22 22 17 14 12 14 12 15 16 17 14 14 15 15 17 20 20 19 14 15 18 18 17 16 16 16 15 16 16 16 15 15
18 18 20 12 15 21 17 16 17 19 20 21 20 16 20 15 12 15 17 15 16 16 17 17 20 16 20 22 24 21 22 20 22 19 18 18 18 19 17 18 18 18 18
18 17 22 23 20 22 23 21 19 16 20 22 17 14 15 15 15 16 16 18 17 17 19 15 18 21 22 25 27 25 21 22 22 24 21 20 22 21 20 20 21 21 22
18 21 23 23 22 25 23 21 16 19 25 26 20 17 11 15 19 20 21 22 18 16 18 25 26 24 24 26 23 23 26 20 22 22 25 25 25 23 23 22 24 24 24
13 17 20 22 22 24 23 25 23 20 20 23 18 14 16 20 24 29 26 22 15 15 14 14 22 27 24 25 23 25 24 23 24 25 23 28 29 28 27 25 21 26 29
18 17 18 19 20 21 23 24 23 27 24 23 23 18 9 9 10 15 23 16 13 13 13 14 17 22 24 21 22 21 20 19 22 23 23 24 28 30 30 30 28 26 27
13 16 17 19 19 18 19 20 21 23 25 25 22 20 22 14 5 3 8 8 12 16 14 14 15 17 22 20 21 19 17 17 19 16 16 16 21 24 28 31 31 29 29
9 12 16 19 17 16 17 17 18 20 20 19 20 19 21 18 15 13 5 4 8 6 9 13 11 13 16 16 18 19 21 10 13 12 12 14 17 20 23 26 28 30 30
16 17 13 13 14 16 14 13 11 13 15 16 17 18 21 19 13 17 14 12 6 8 10 10 16 16 17 21 15 5 17 14 15 12 13 18 22 22 22 23 25 26 28
15 17 12 14 13 16 8 4 7 8 11 14 18 16 19 20 17 10 15 13 12 10 9 8 5 8 16 4 3 2 1 12 11 12 16 17 18 18 20 21 22 23 24
12 15 12 11 10 11 9 4 3 3 6 9 11 10 16 17 19 13 13 12 12 13 9 10 11 6 5 10 7 6 7 11 11 11 13 15 16 16 17 18 19 21 21
12 13 12 9 8 10 6 4 3 3 4 7 9 10 13 13 18 9 12 9 9 10 10 11 13 15 18 18 17 16 15 13 13 13 13 15 14 13 14 15 15 16 17
11 13 14 12 9 10 8 5 3 4 5 5 4 5 7 9 13 16 12 6 11 11 12 11 12 13 14 14 13 15 16 16 14 13 12 12 12 10 11 11 12 12 11
11 12 14 15 13 10 10 7 4 4 2 2 2 2 3 4 7 9 11 12 14 13 14 13 12 15 13 10 11 8 11 10 5 6 5 6 7 3 3 4 6 8 8
10 12 13 14 16 15 12 10 8 6 5 5 5 3 2 0 4 6 9 10 8 8 8 9 7 10 11 8 6 6 6 4 7 6 5 7 7 8 9 5 5 6 7
9 12 14 14 14 12 12 12 10 9 8 7 6 3 2 1 2 5 5 6 7 7 8 8 8 7 5 3 5 2 4 6 7 6 6 6 5 8 7 4 2 4 7
7 9 12 11 10 10 13 13 12 12 11 9 8 6 6 6 6 6 5 3 0 1 1 1 3 4 4 7 2 4 4 3 4 4 2 4 4 5 3 6 6 5 5
7 9 9 7 7 9 11 11 12 12 12 12 12 11 11 10 10 9 7 7 7 7 7 6 6 6 5 2 1 3 2 1 2 3 4 4 3 2 1 3 5 5 4
6 6 7 5 8 10 9 9 10 11 10 11 11 12 13 13 11 9 7 6 5 5 3 3 5 2 2 1 1 1 1 1 2 4 4 5 6 6 6 7 8 8 7
4 3 4 4 7 8 8 9 12 10 10 11 12 11 9 12 10 10 8 7 6 5 3 1 3 3 2 3 3 3 4 2 3 4 4 5 7 8 8 8 8 8 8
2 2 1 3 5 7 8 9 11 9 8 6 7 6 7 7 7 8 9 9 9 9 10 9 7 7 6 9 9 10 10 7 8 7 6 7 10 8 8 10 10 9 9
4 3 2 2 4 5 7 9 7 3 3 2 3 4 6 6 8 6 7 6 7 9 9 9 8 8 7 6 4 6 7 5 4 4 5 7 9 7 9 11 14 8 7
6 7 7 3 1 3 6 7 5 3 8 6 2 1 3 4 5 5 5 5 5 6 8 12 13 12 8 1 5 6 6 5 5 5 1 2 6 9 6 6 10 13 9

GFSMA_850_spd_030.txt.gz
Wind_Speed
10 11 9 10 12 11 13 11 11 10 10 11 14 10 12 16 20 19 17 15 15 13 13 14 15 16 15 15 14 14 14 13 12 11 12 10 10 9 9 9 9 9 10
11 12 11 13 17 20 18 16 16 20 21 20 17 14 18 17 18 21 19 16 17 16 15 15 16 17 18 18 16 16 16 14 13 12 12 13 12 11 11 10 10 10 11
11 10 10 13 16 19 21 23 20 21 23 24 24 19 18 16 19 19 19 20 18 17 16 16 17 19 18 20 20 19 17 14 14 13 14 15 14 13 13 13 12 12 12
11 12 12 12 13 16 16 17 15 11 12 18 18 16 26 16 16 18 19 21 22 22 23 22 21 19 19 21 22 21 19 16 15 16 17 17 17 16 15 14 14 14 14
10 12 14 14 15 16 18 16 18 14 15 18 23 20 19 20 18 16 15 18 19 18 20 22 23 22 20 21 23 23 23 22 17 16 18 19 18 18 17 17 16 17 17
7 12 16 15 15 16 19 20 18 16 16 16 17 17 15 19 20 17 18 18 19 19 19 20 21 24 25 24 23 23 24 25 23 18 19 20 20 21 21 20 20 19 20
8 5 9 10 11 15 16 18 19 20 19 17 17 20 18 19 22 20 20 24 22 19 19 20 21 23 24 24 26 24 23 23 24 23 20 20 21 23 23 22 21 20 21
6 9 12 11 14 15 12 14 17 19 19 17 16 17 18 21 21 22 24 23 23 20 19 18 20 23 24 23 25 24 23 22 24 21 24 25 21 23 25 25 25 24 23
7 11 13 14 17 16 14 13 13 18 19 20 20 16 11 10 12 19 23 24 26 23 20 19 19 19 20 21 22 23 22 24 24 24 21 23 23 24 24 24 26 28 29
8 11 15 15 10 11 10 10 11 13 16 20 20 20 23 12 8 8 9 17 18 22 21 18 17 16 15 16 17 17 18 17 18 20 20 18 19 20 21 22 25 27 28
11 14 14 9 8 9 12 11 9 11 13 15 19 20 18 21 19 17 14 11 10 11 11 12 12 14 15 15 12 12 14 15 18 21 17 18 16 15 16 19 22 25 28
11 13 10 8 8 8 7 5 1 6 9 12 14 16 19 21 22 20 17 14 8 6 7 8 6 8 12 12 13 11 10 14 10 18 17 15 15 18 17 19 22 25 28
10 11 10 8 6 7 6 5 3 1 2 4 9 12 13 13 16 11 14 13 13 11 7 5 2 2 4 7 4 9 10 14 14 13 18 14 16 18 21 22 24 26 27
10 10 10 10 7 6 4 5 5 4 2 2 4 7 8 10 12 14 14 11 11 11 10 9 4 3 2 7 4 8 7 7 8 10 13 18 20 21 23 23 25 25 23
11 13 12 9 10 8 5 4 3 3 4 2 2 4 4 7 9 12 12 13 10 8 11 10 8 6 5 9 9 8 7 6 8 14 15 17 18 17 17 18 19 19 18
11 11 12 11 8 7 8 7 7 7 4 4 1 3 5 6 8 12 11 9 13 11 7 10 10 8 6 7 7 7 8 9 9 10 11 12 13 13 12 13 13 13 11
11 10 10 10 9 8 8 7 7 7 5 5 5 4 4 3 4 6 8 10 7 10 10 7 8 7 6 4 4 4 4 5 5 4 3 2 0 1 2 5 7 7 5
10 10 10 11 10 8 8 8 9 8 8 8 8 4 2 2 2 3 5 9 8 7 10 12 12 11 7 6 5 6 6 6 4 4 2 4 4 3 4 4 4 3 4
8 9 10 10 11 11 11 11 10 10 10 10 9 8 8 6 3 1 3 5 7 7 8 11 15 12 10 9 9 8 5 3 3 1 0 1 1 4 2 1 1 3 4
5 7 9 9 10 11 12 12 12 12 11 11 11 10 9 7 7 6 5 5 4 4 6 9 12 10 11 11 8 5 4 3 2 2 1 1 1 1 0 2 3 3 3
3 4 6 6 7 7 11 10 10 10 10 11 11 10 10 10 10 9 8 8 8 7 6 10 10 11 12 10 6 5 5 4 3 1 1 1 1 1 2 4 5 5 5
1 1 3 3 4 6 9 10 10 9 10 10 10 12 12 11 11 9 8 7 7 7 6 8 9 8 8 6 5 6 6 4 3 4 5 4 5 4 4 5 5 5 5
3 2 1 2 1 3 7 9 10 9 9 9 10 11 11 12 11 11 10 8 7 6 5 6 6 6 6 5 4 8 6 4 2 5 6 4 4 3 2 3 3 3 3
5 3 3 4 3 2 4 6 7 8 6 5 6 6 8 9 10 11 10 9 9 9 9 8 5 5 4 4 6 6 7 7 8 8 7 4 6 8 9 8 8 8 7
5 3 3 6 6 4 2 2 4 7 6 3 4 4 4 5 6 8 8 7 7 9 10 8 7 7 5 1 3 5 4 5 5 5 5 6 7 8 8 10 10 11 10
6 5 4 4 7 7 5 3 2 3 6 6 5 2 1 2 3 4 5 6 4 8 9 6 7 6 7 11 4 4 4 5 8 6 3 6 6 4 4 7 10 9 9

GFSMA_850_spd_033.txt.gz
Wind_Speed
11 10 9 9 10 9 9 7 8 9 9 9 10 14 14 16 18 18 18 14 13 11 10 12 13 13 13 13 13 14 13 13 13 13 13 12 11 10 10 11 10 10 10
11 11 11 10 11 11 12 15 13 13 15 17 18 16 17 11 17 20 22 18 14 16 15 14 15 14 15 15 15 16 15 14 14 14 13 13 13 12 12 12 12 12 12
15 15 14 13 12 11 14 17 18 20 21 21 23 22 20 16 15 21 21 22 19 16 16 14 15 15 16 17 17 18 18 16 16 16 15 14 15 15 14 14 14 14 14
13 15 13 16 14 12 13 15 17 19 18 15 14 19 22 21 20 17 22 23 22 19 18 17 17 17 17 19 20 20 21 19 19 18 17 17 17 17 16 16 16 16 15
10 10 12 15 13 15 16 16 16 17 20 16 16 16 19 21 24 20 18 19 20 19 19 19 19 19 20 20 21 21 22 22 21 21 18 20 20 19 18 19 19 19 18
10 11 11 14 14 15 17 18 18 17 16 16 16 17 19 21 17 21 16 19 17 16 16 16 16 19 20 22 22 21 21 24 24 25 22 20 20 21 22 22 22 22 21
5 7 7 9 12 11 13 15 17 16 18 18 18 19 19 19 18 22 20 19 19 17 16 16 17 18 18 21 20 22 24 24 25 27 28 25 22 20 22 25 24 24 24
5 7 9 11 12 15 16 15 14 16 17 17 19 17 12 18 21 22 19 21 18 16 17 18 16 17 19 19 20 22 21 23 28 26 25 27 25 22 20 24 25 24 26
7 9 12 14 16 16 14 14 14 16 15 17 18 15 6 10 15 15 20 15 15 18 16 17 16 17 18 16 17 18 21 21 24 27 29 32 21 24 23 24 24 24 26
9 12 15 14 11 10 10 12 13 13 15 16 18 20 20 10 7 7 3 8 11 16 20 20 16 18 19 15 15 15 16 18 17 18 23 20 20 21 19 21 22 22 23
12 12 13 12 9 9 10 10 11 12 13 13 16 18 19 20 16 11 13 11 4 6 7 13 16 15 15 13 11 9 9 14 19 24 21 23 20 15 13 14 15 17 19
12 12 11 9 7 7 7 5 3 5 8 9 12 15 15 18 18 20 17 17 11 6 7 9 9 8 8 10 9 10 11 8 12 13 14 18 18 14 15 18 19 18 21
9 7 7 6 4 5 4 4 3 0 2 3 6 9 12 14 14 12 17 17 15 11 9 8 7 5 4 6 11 10 12 12 15 16 16 17 17 15 20 19 21 23 25
6 8 7 8 5 3 3 3 3 2 2 3 4 6 8 9 8 12 10 10 11 12 12 10 8 6 5 4 6 6 9 13 10 9 8 11 17 18 20 22 23 24 23
8 8 9 7 7 6 3 3 2 2 3 2 3 5 6 7 9 12 13 13 11 9 12 11 9 7 7 7 9 11 12 13 13 13 15 15 15 15 15 16 17 18 18
6 8 9 8 6 6 6 6 6 6 5 3 2 2 4 4 5 8 9 11 13 13 9 13 14 11 9 8 8 11 12 12 12 11 10 11 11 11 10 10 10 7 4
9 10 11 10 9 8 8 7 7 6 5 4 5 5 3 3 2 5 8 10 8 12 14 12 12 9 8 7 7 8 10 9 7 5 5 5 4 5 6 6 8 9 9
9 10 11 11 11 10 9 8 8 9 8 8 8 5 3 3 3 3 4 7 7 8 11 14 12 8 8 8 7 8 8 7 6 4 5 6 5 6 6 6 6 6 4
8 10 10 12 12 11 12 12 10 10 10 9 8 7 7 6 4 2 3 4 5 7 9 11 13 10 10 9 7 9 6 3 2 3 3 4 5 5 5 5 5 5 4
6 7 8 10 11 10 11 11 11 11 10 10 10 10 10 9 8 8 7 5 3 1 4 7 9 11 10 9 8 6 4 2 2 2 4 5 3 4 4 4 5 5 4
3 5 6 7 8 8 10 10 10 11 12 12 12 12 11 12 11 11 9 10 9 6 4 6 7 9 10 9 7 5 4 4 3 3 5 3 2 3 3 2 3 4 4
3 4 5 5 5 6 10 11 11 11 11 11 11 12 11 11 11 10 9 9 9 9 7 6 4 4 4 5 5 6 5 3 6 3 2 1 1 1 1 0 1 2 3
4 3 3 2 2 4 7 9 10 10 10 10 11 12 11 12 12 11 10 8 7 6 6 6 3 2 3 4 5 6 6 4 5 3 2 2 2 2 2 2 1 1 2
4 5 4 2 2 1 4 7 9 10 8 8 8 9 10 11 11 11 9 7 6 6 6 5 3 4 2 3 4 4 5 5 5 4 2 0 1 1 1 2 2 3 5
4 4 3 4 5 2 1 3 6 9 7 6 6 6 6 7 8 9 8 7 5 5 7 6 6 7 6 4 3 2 2 3 5 4 3 1 2 2 2 3 4 6 7
8 4 3 4 5 5 3 1 2 5 6 7 7 5 4 4 3 5 6 5 3 4 5 5 5 5 7 11 7 6 7 7 9 7 6 5 6 5 3 4 4 5 5

GFSMA_850_spd_036.txt.gz
Wind_Speed
10 12 8 6 8 8 7 7 5 6 5 7 8 10 13 14 16 17 17 18 13 12 10 8 10 11 12 12 13 13 14 13 13 13 12 13 12 12 10 10 11 11 10
13 11 9 8 10 10 9 11 12 12 11 11 13 14 13 17 15 16 18 18 15 14 13 13 11 13 13 14 14 15 15 14 14 14 13 14 15 14 13 12 13 13 12
13 14 12 11 10 11 12 13 14 16 16 17 18 19 20 19 20 15 16 16 18 16 14 15 15 14 15 15 16 17 17 16 16 16 15 15 15 15 16 14 14 14 13
12 14 14 11 11 14 14 13 13 16 17 18 16 16 19 21 21 17 16 18 17 18 17 15 15 14 14 16 18 19 19 19 19 18 18 18 18 17 17 17 16 16 15
7 7 8 11 12 13 14 16 16 16 16 16 18 15 13 16 21 19 18 18 18 18 18 19 17 17 19 19 19 20 21 22 21 21 20 19 18 20 20 19 19 19 19
5 7 9 11 11 13 14 16 17 18 19 17 16 17 16 17 21 25 22 20 19 15 15 16 14 14 15 17 18 19 21 22 23 23 24 24 22 20 22 23 22 22 21
6 8 7 9 11 12 12 14 15 17 19 19 19 19 18 18 18 17 17 17 17 16 16 15 14 14 14 14 15 18 19 24 25 23 23 25 27 25 24 24 26 26 25
4 6 8 9 11 13 15 16 16 17 16 17 18 17 14 15 17 17 16 19 19 17 18 15 16 15 14 13 15 17 21 22 21 20 24 20 29 32 29 26 24 27 27
6 7 9 10 13 14 13 13 15 16 15 15 15 14 5 6 7 12 11 16 15 15 16 13 15 14 13 15 16 14 16 18 19 21 21 20 18 24 32 33 30 26 26
9 11 11 11 11 10 10 11 13 15 14 14 14 16 18 7 1 4 5 7 10 12 15 16 18 15 15 16 14 12 12 13 12 11 13 14 18 18 21 27 33 27 27
10 12 11 9 7 7 9 10 11 11 12 12 12 12 16 17 15 10 9 6 4 1 3 6 12 12 14 13 11 11 12 10 10 13 15 15 13 14 15 18 9 10 12
10 9 9 8 5 6 7 6 6 4 4 7 10 12 14 16 18 17 17 12 9 5 1 2 4 7 9 9 12 13 11 13 10 14 14 12 13 14 17 19 10 12 15
8 7 7 6 4 4 4 4 5 3 2 3 6 10 12 13 12 10 12 15 11 8 5 5 6 7 7 7 9 12 10 10 11 13 12 9 12 13 12 16 18 19 19
8 10 9 9 7 4 3 4 4 4 3 1 2 5 8 10 11 10 11 12 13 9 10 9 8 6 5 5 5 5 6 10 13 13 11 10 12 11 13 13 14 16 16
11 11 10 8 7 7 6 5 4 3 3 1 1 3 5 7 8 9 11 11 10 9 11 8 7 6 6 5 5 8 10 11 12 13 13 13 13 12 13 13 12 12 12
10 11 9 8 8 7 7 7 7 9 7 4 2 0 3 4 6 8 10 10 12 11 10 11 10 10 8 7 6 9 11 12 11 9 8 8 8 7 9 8 7 6 7
10 11 12 10 9 8 9 8 9 9 8 6 5 5 3 2 2 4 7 8 8 11 13 11 11 10 6 5 6 8 8 11 7 5 6 7 7 8 7 8 8 7 6
11 12 13 12 11 11 10 10 10 10 9 8 8 6 4 4 3 1 2 4 5 4 9 11 10 11 7 6 6 7 8 8 5 5 5 7 7 7 7 7 8 7 8
10 11 12 12 12 13 13 13 12 12 12 11 10 8 10 9 6 3 0 1 2 4 7 8 10 10 5 6 6 5 6 3 1 3 4 6 7 6 5 5 5 4 3
8 9 9 10 10 10 11 12 12 12 12 12 13 13 12 11 11 10 7 4 2 1 3 4 5 6 6 5 5 3 3 2 1 2 3 5 5 5 6 6 6 5 6
6 8 7 8 8 9 10 12 12 12 13 13 14 13 13 12 11 11 10 9 8 7 6 4 2 4 4 6 3 2 4 2 2 5 5 3 4 4 5 4 4 4 4
3 6 6 5 5 6 10 11 12 12 12 12 13 13 13 12 13 12 11 10 10 9 9 6 3 2 2 1 5 5 3 2 6 4 1 1 2 3 5 4 4 4 4
2 4 4 3 3 4 8 10 10 9 9 9 11 12 11 12 12 12 11 10 9 9 8 7 4 2 2 4 5 6 4 4 6 4 2 3 3 4 4 4 4 3 4
2 1 2 2 1 2 5 7 9 8 8 8 9 9 9 10 10 11 10 9 9 7 7 6 4 5 3 4 5 5 5 6 6 3 3 4 4 3 2 1 1 2 2
6 3 3 1 2 1 2 4 7 8 7 7 7 7 7 8 9 10 9 9 9 8 9 9 9 9 9 8 5 4 3 4 5 6 6 5 3 2 1 1 1 2 2
8 5 4 2 3 3 2 0 2 5 5 7 7 6 6 6 6 8 9 8 7 7 7 6 7 8 10 12 9 6 6 7 8 10 8 6 5 4 3 4 3 2 1